Weather Roundup
Issued by NWS

Home | Current Version | Previous Version | Graphics & Text | Print | Product List | Glossary Off
Versions: 1 2 3 4 5 6 7 8 9 10 11 12 13 14 15 16 17 18 19 20 21 22 23 24 25 26 27 28 29 30 31 32 33 34 35 36 37 38 39 40 41 42 43 44 45 46 47 48 49 50

508
NZUS93 KARX 141459
HRRWXR

CURRENT HOURLY OBSERVATIONS ACROSS
MUCH OF THE UPPER MISSISSIPPI VALLEY
NATIONAL WEATHER SERVICE LA CROSSE WI
900 AM CST THU DEC 14 2017


...SOUTHEAST MINNESOTA...


CITY           SKY/WX    TMP DP  RH WIND       PRES   REMARKS
ROCHESTER      CLOUDY    10   9  95 S5        30.03R WCI   2
ROCHESTER/MAYO FAIR      15  13  94 CALM      30.04R
WINONA           N/A     14  12  92 CALM      30.08R
AUSTIN         SUNNY     10   9  92 CALM      30.03R
ALBERT LEA     SUNNY     14  10  85 CALM      30.03R FOG
DODGE CENTER   SUNNY     12  10  92 CALM      30.02R FOG
PRESTON        SUNNY     12  10  90 SW5       30.03S WCI   4
OWATONNA       SUNNY     12  10  92 CALM      30.04R FOG
FARIBAULT      PTCLDY    12  10  92 CALM      30.04R FOG
$$

...ELSEWHERE IN MINNESOTA...


CITY           SKY/WX    TMP DP  RH WIND       PRES   REMARKS
MINNEAPOLIS    CLOUDY    18  14  84 SW5       30.05R WCI  11
INTNL FALLS    LGT SNOW  10   6  84 CALM      29.96R VSB 3/4
DULUTH         FLURRIES  14  12  92 W7        29.94R WCI   4
RED WING       MOSUNNY   16  10  79 CALM      30.05R FOG
REDWOOD FALLS  CLOUDY    21  16  81 NW6       30.03R WCI  13
MANKATO        CLOUDY    17  14  88 SE3       30.05R
WORTHINGTON    CLOUDY    22  19  89 S6        30.02R WCI  14
FAIRMONT       CLOUDY    20  15  81 S7        30.05R WCI  11
$$

...SOUTHWEST WISCONSIN...


CITY           SKY/WX    TMP DP  RH WIND       PRES   REMARKS
LA CROSSE      SUNNY     14  11  87 SE5       30.08R WCI   6
PRAIRIE DU CHI CLOUDY    13   9  83 CALM      30.09R
BOSCOBEL       MOSUNNY   12   8  84 SW3       30.09R
LONE ROCK      NOT AVBL
PLATTEVILLE    CLOUDY    16  15  97 N3        30.05R
FORT MC COY    PTSUNNY    2  -1  87 CALM      30.07R
CAMP DOUGLAS   MOSUNNY   12  10  92 CALM      30.04S
MAUSTON-NEW LI SUNNY     10   7  88 CALM      30.04R
VIROQUA        FAIR      11  10  97 CALM      30.02R
WIS DELLS      MOSUNNY   11   8  89 CALM      30.04S
$$

...ELSEWHERE IN WISCONSIN...


CITY           SKY/WX    TMP DP  RH WIND       PRES   REMARKS
MILWAUKEE      MOSUNNY   17   9  70 NW8       30.05S WCI   7
MADISON        CLOUDY    16  13  88 VRB3      30.05R
GREEN BAY      CLOUDY     5   0  79 W6        30.04R WCI  -6
EAU CLAIRE     NOT AVBL
BLACK RVR FLS  CLOUDY     9   6  87 CALM      30.04S
MEDFORD        CLOUDY    10   7  89 CALM      29.95F
WAUSAU         CLOUDY     9   6  88 CALM      29.98R
WIS RAPIDS     MOSUNNY    3   1  91 W3        30.05R
MARSHFIELD     CLOUDY     9   7  92 CALM      29.99R
RICE LAKE      FLURRIES  17  16  94 CALM      30.01S
$$

...NORTHEAST IOWA...


CITY           SKY/WX    TMP DP  RH WIND       PRES   REMARKS
WATERLOO       CLOUDY    19  13  77 CALM      30.08R
DUBUQUE        SUNNY     18  14  84 CALM      30.06R
DECORAH        CLOUDY    10   9  92 CALM      30.04R
MASON CITY     CLOUDY    17  14  88 CALM      30.05S
CHARLES CITY   CLOUDY    14  14 100 CALM      30.06R
OELWEIN        MOSUNNY   16  16 100 CALM      30.07R
$$

...ELSEWHERE IN IOWA...


CITY           SKY/WX    TMP DP  RH WIND       PRES   REMARKS
DES MOINES     CLOUDY    26  16  65 N7        30.08R WCI  18
IOWA CITY      CLOUDY    22  15  75 MISG      30.12R
FORT DODGE     CLOUDY    23  17  78 CALM      30.06
MARSHALLTOWN   CLOUDY    23  17  78 N6        30.06R WCI  16
CEDAR RAPIDS   CLOUDY    16  12  84 N6        30.08R WCI   7
$$

...NORTHERN ILLINOIS...


CITY           SKY/WX    TMP DP  RH WIND       PRES   REMARKS
CHICAGO-OHARE  PTSUNNY   20   9  62 N13       30.06R WCI   7
CHICAGO-MIDWAY PTSUNNY   20  12  71 N12       30.06R WCI   8
MOLINE         CLOUDY    24  15  68 E9        30.09R WCI  14
ROCKFORD       MOSUNNY   18  10  71 N5        30.09R WCI  11
PEORIA         MOSUNNY   22  12  65 N6        30.09R WCI  14
$$

NOTE: "FAIR" INDICATES FEW OR NO CLOUDS BELOW 12,000 FEET WITH NO
SIGNIFICANT WEATHER AND/OR OBSTRUCTIONS TO VISIBILITY. WIND
SPEEDS ARE IN MILES-PER-HOUR.




USA.gov is the U.S. government's official web portal to all federal, state and local government web resources and services.